Temp
12 12 12 12 11 11 11 11 11 11 11 11 10 10 10 10 10 10 10 10 9 9 9 9 9 9 9 9 9 9 9 9 9 9 9 9 9 9 9 9 9 9 9 8 8 8 8 8 8 8 8 8 8 7 7 7 7 7 7 7 7 7 7 7 7 7 7 7 7
12 12 12 12 11 11 11 11 11 11 10 10 10 10 10 10 10 10 9 9 9 9 9 9 9 9 9 9 9 9 9 9 9 9 9 9 9 9 9 8 8 8 8 8 8 8 8 8 8 7 7 7 7 7 7 7 7 7 7 7 7 7 7 7 7 6 6 6 6
12 12 11 11 11 11 11 11 11 10 10 10 10 10 10 10 10 9 9 9 9 9 9 9 9 9 8 8 8 8 8 8 8 8 8 8 8 8 8 8 8 8 8 8 8 8 7 7 7 7 7 7 7 7 7 6 6 6 6 6 6 6 6 6 6 6 6 6 6
11 11 11 11 11 11 11 11 10 10 10 10 10 10 10 10 9 9 9 9 9 9 9 8 8 8 8 8 8 8 8 8 8 8 8 8 8 8 8 8 8 8 8 7 7 7 7 7 7 7 7 6 6 6 6 6 6 6 6 6 6 6 6 6 6 6 6 6 6
11 11 11 11 11 11 10 10 10 10 10 10 10 10 9 9 9 9 9 9 9 8 8 8 8 8 8 8 8 8 8 8 8 8 8 8 8 8 8 8 7 7 7 7 7 7 7 7 6 6 6 6 6 6 6 6 6 6 5 5 5 5 5 5 5 5 5 5 5
11 11 11 11 10 10 10 10 10 10 10 9 9 9 9 9 9 9 9 8 8 8 8 8 8 8 8 8 8 8 7 7 8 8 8 7 7 7 7 7 7 7 7 7 7 7 6 6 6 6 6 6 6 5 5 5 5 5 5 5 5 5 5 5 5 5 5 5 5
11 11 10 10 10 10 10 10 10 9 9 9 9 9 9 9 9 8 8 8 8 8 8 8 8 7 7 7 7 7 7 7 7 7 7 7 7 7 7 7 7 7 7 7 6 6 6 6 6 6 5 5 5 5 5 5 5 5 5 5 5 5 5 5 4 4 4 4 4
10 10 10 10 10 10 10 9 9 9 9 9 9 9 9 8 8 8 8 8 8 8 8 7 7 7 7 7 7 7 7 7 7 7 7 7 7 7 7 7 6 6 6 6 6 6 6 5 5 5 5 5 5 5 5 5 4 4 4 4 4 4 4 4 4 4 4 4 4
10 10 10 10 9 9 9 9 9 9 9 9 9 8 8 8 8 8 8 8 8 7 7 7 7 7 7 7 7 7 7 7 7 7 7 6 6 6 6 6 6 6 6 6 5 5 5 5 5 5 5 4 4 4 4 4 4 4 4 4 4 4 4 4 4 3 3 3 3
10 10 10 9 9 9 9 9 9 9 9 8 8 8 8 8 8 8 8 7 7 7 7 7 7 7 7 7 6 6 6 6 6 6 6 6 6 6 6 6 5 5 5 5 5 5 5 5 4 4 4 4 4 4 4 4 4 4 4 3 3 3 3 3 3 3 3 3 2
10 9 9 9 9 9 9 9 9 8 8 8 8 8 8 8 8 7 7 7 7 7 7 7 7 6 6 6 6 6 6 6 6 6 6 6 5 5 5 5 5 5 5 5 5 5 4 4 4 4 4 4 4 4 4 3 3 3 3 3 3 3 3 3 3 2 2 2 2
9 9 9 9 9 9 8 8 8 8 8 8 8 8 7 7 7 7 7 7 7 6 6 6 6 6 6 6 6 6 6 5 5 5 5 5 5 5 5 5 5 5 4 4 4 4 4 4 4 4 4 4 3 3 3 3 3 3 3 2 2 2 2 2 2 2 2 2 1
9 9 9 9 9 8 8 8 8 8 8 7 7 7 7 7 7 7 6 6 6 6 6 6 6 6 5 5 5 5 5 5 5 5 5 5 5 5 5 4 4 4 4 4 4 4 4 4 3 3 3 3 3 3 3 3 2 2 2 2 2 2 2 2 2 2 1 1 1
9 9 9 8 8 8 8 8 7 7 7 7 7 7 7 6 6 6 6 6 6 6 5 5 5 5 5 5 5 5 5 5 5 5 5 5 4 4 4 4 4 4 4 4 4 4 3 3 3 3 3 3 3 2 2 2 2 2 2 2 2 2 1 1 1 1 1 1 1
9 9 8 8 8 8 7 7 7 7 7 6 6 6 6 6 6 5 5 5 5 5 5 5 5 5 5 5 5 5 5 5 5 4 4 4 4 4 4 4 4 4 4 3 3 3 3 3 3 3 3 2 2 2 2 2 2 2 2 1 1 1 1 1 1 1 1 1 0
8 8 8 8 7 7 7 7 7 6 6 6 6 6 5 5 5 5 5 5 5 5 5 5 5 5 5 5 5 4 4 4 4 4 4 4 4 4 4 4 4 3 3 3 3 3 3 3 3 3 2 2 2 2 2 2 2 2 1 1 1 1 1 1 1 1 1 1 0
8 8 7 7 7 7 7 6 6 6 6 6 5 5 5 5 5 5 5 5 4 4 4 4 4 4 4 4 4 4 4 4 4 4 4 4 4 4 3 3 3 3 3 3 3 3 3 3 3 2 2 2 2 2 2 2 2 1 1 1 1 1 1 1 1 1 1 1 0
8 7 7 7 7 6 6 6 6 6 6 5 5 5 5 5 5 5 4 4 4 4 4 4 4 4 4 4 4 4 4 4 4 4 4 4 4 3 3 3 3 3 3 3 3 3 2 2 2 2 2 2 2 2 2 2 1 1 1 1 1 1 1 1 1 1 1 0 0
7 7 7 7 6 6 6 6 6 6 5 5 5 5 5 5 5 5 4 4 4 4 4 4 4 4 4 4 4 4 4 4 4 4 4 3 3 3 3 3 3 3 3 3 2 2 2 2 2 2 2 2 2 2 2 1 1 1 1 1 1 1 1 1 1 1 1 0 0
7 7 7 6 6 6 6 6 6 6 5 5 5 5 5 5 5 5 4 4 4 4 4 4 4 4 4 4 4 4 4 4 4 3 3 3 3 3 3 3 3 2 2 2 2 2 2 2 2 2 2 2 2 2 2 2 1 1 1 1 1 1 1 1 1 1 0 0 -0
7 7 6 6 6 6 6 6 6 5 5 5 5 5 5 5 5 4 4 4 4 4 4 4 4 4 4 4 4 4 4 4 3 3 3 3 3 3 3 2 2 2 2 2 2 2 2 2 2 2 2 2 2 2 2 2 2 2 1 1 1 1 1 1 1 0 0 -0 -0
7 6 6 6 6 6 6 6 6 5 5 5 5 5 5 5 5 4 4 4 4 4 4 4 4 4 4 4 4 3 3 3 3 3 3 3 3 2 2 2 2 2 2 2 2 2 2 2 2 2 2 2 2 2 2 2 2 1 1 1 1 1 1 1 1 0 0 -0 -0
7 6 6 6 6 6 6 6 6 5 5 5 5 5 5 4 4 4 4 4 4 4 4 3 3 3 3 3 3 3 3 3 3 3 3 3 2 2 2 2 2 2 2 2 2 2 2 2 1 1 1 1 2 2 2 2 2 1 1 1 1 1 1 1 0 0 0 0 -0
7 7 6 6 6 6 6 6 5 5 5 5 5 5 4 4 4 4 4 4 4 3 3 3 3 3 3 3 3 3 3 3 3 3 2 2 2 2 2 2 2 2 2 2 2 2 1 1 1 1 1 2 2 2 2 2 2 2 1 1 1 1 1 0 0 0 0 0 -0
7 6 6 6 6 6 6 6 5 5 5 5 5 5 4 4 4 4 4 3 3 3 3 3 3 3 3 3 3 3 3 3 2 2 2 2 2 2 2 2 2 1 1 1 1 1 1 1 1 2 2 2 2 2 2 2 2 2 2 1 1 1 1 0 0 0 0 -0 -0
6 6 6 6 6 6 6 6 5 5 5 5 5 4 4 4 4 4 3 3 3 3 3 3 3 3 3 3 3 3 2 2 2 2 2 2 2 2 2 1 1 1 1 1 1 1 1 1 2 2 2 2 2 2 2 2 2 2 1 1 1 1 0 0 0 -0 -0 -0 -0
6 6 6 6 6 6 6 6 5 5 5 5 4 4 4 4 4 3 3 3 3 3 3 3 3 3 3 3 2 2 2 2 2 2 2 2 1 1 1 1 1 1 1 1 1 1 1 2 2 2 2 2 2 2 2 2 2 1 1 1 1 0 0 -0 -0 -0 -0 -0 -0
6 6 6 6 6 6 6 5 5 5 5 5 4 4 4 4 3 3 3 3 3 3 3 3 3 3 2 2 2 2 2 2 2 2 1 1 1 1 1 1 1 1 1 1 1 1 1 1 2 2 2 2 2 2 2 2 1 1 1 1 0 0 -0 -0 -0 -0 -0 -0 -0
6 6 6 6 6 6 6 5 5 5 5 4 4 4 4 4 3 3 3 3 3 3 3 3 3 2 2 2 2 2 2 2 2 1 1 1 1 1 1 1 1 1 1 1 1 1 1 1 1 2 2 2 2 2 2 1 1 1 1 0 0 -0 -0 -0 -0 -1 -0 -0 -0
6 6 6 6 6 6 6 5 5 5 5 4 4 4 4 3 3 3 3 3 3 3 3 3 2 2 2 2 2 2 2 2 1 1 1 1 1 1 1 1 1 1 1 1 1 1 1 1 1 2 2 2 2 2 2 1 1 1 1 0 -0 -0 -0 -0 -0 -0 -0 -0 -0
6 6 6 6 6 6 6 5 5 5 5 4 4 4 4 3 3 3 3 3 3 3 3 2 2 2 2 2 2 2 2 1 1 1 1 1 1 1 1 1 1 1 1 1 1 1 1 1 1 1 2 2 2 2 1 1 1 1 0 0 -0 -0 -0 -0 -0 -0 -0 -0 -0
6 6 6 6 6 6 5 5 5 5 4 4 4 4 4 3 3 3 3 3 3 3 2 2 2 2 2 2 2 1 1 1 1 1 1 1 1 1 1 1 1 1 1 1 1 1 1 1 1 1 1 2 2 1 1 1 1 0 0 -0 -0 -0 -0 -0 -0 -0 -0 -0 -0
6 6 6 6 6 6 5 5 5 5 4 4 4 4 3 3 3 3 3 3 3 2 2 2 2 2 2 2 1 1 1 1 1 1 1 1 1 1 1 1 1 1 0 1 1 1 1 1 1 1 1 1 1 1 1 1 0 0 -0 -0 -0 -0 -0 -0 -0 -0 -0 -0 -1
6 6 6 6 6 6 5 5 5 4 4 4 4 4 3 3 3 3 3 3 2 2 2 2 2 2 2 1 1 1 1 1 1 1 1 1 1 1 1 1 0 0 0 0 1 1 1 1 1 1 1 1 1 1 1 0 0 -0 -0 -0 -0 -0 -0 -0 -0 -0 -0 -1 -1
6 6 6 6 6 6 5 5 5 4 4 4 4 4 3 3 3 3 3 3 2 2 2 2 2 2 2 1 1 1 1 1 1 1 1 1 1 1 0 0 0 0 0 0 0 1 1 1 1 1 1 1 1 1 0 0 -0 -0 -0 -0 -0 -0 -0 -0 -0 -0 -1 -1 -1
6 6 6 6 6 5 5 5 5 4 4 4 4 3 3 3 3 3 3 2 2 2 2 2 2 2 1 1 1 1 1 1 1 1 1 1 0 0 0 0 0 0 0 0 0 1 1 1 1 1 1 1 0 0 -0 -0 -0 -0 -0 -0 -0 -0 -0 -0 -0 -0 -1 -1 -1
6 6 6 6 6 5 5 5 4 4 4 4 4 3 3 3 3 3 2 2 2 2 2 2 2 2 1 1 1 1 1 1 1 1 1 0 0 0 0 0 0 0 0 0 0 0 1 1 1 1 1 0 0 -0 -0 -0 -0 -1 -1 -0 -0 -0 -0 -0 -1 -1 -1 -1 -1
7 6 6 6 5 5 5 5 4 4 4 4 3 3 3 3 3 2 2 2 2 2 2 2 2 1 1 1 1 1 1 1 1 1 0 0 0 0 0 0 0 0 0 0 0 0 0 0 0 0 0 0 -0 -0 -0 -0 -1 -1 -0 -0 -1 -0 -0 -1 -1 -1 -1 -1 -0
6 6 6 6 5 5 5 5 4 4 4 4 3 3 3 3 3 2 2 2 2 2 2 2 1 1 1 1 1 1 1 1 1 0 0 0 0 0 0 0 0 0 0 0 0 0 0 0 0 0 0 0 -0 -0 -0 -0 -0 -1 -1 -1 -1 -1 -1 -1 -1 -1 -1 -0 -0
6 6 6 6 5 5 5 4 4 4 4 3 3 3 3 3 2 2 2 2 2 2 2 2 1 1 1 1 1 1 1 1 1 0 0 0 0 0 0 0 0 0 0 0 0 0 -0 0 0 0 0 -0 -0 -0 -0 -0 -1 -1 -1 -1 -1 -1 -1 -1 -1 -1 -1 -0 -0
6 6 6 6 5 5 5 4 4 4 4 3 3 3 3 2 2 2 2 2 2 2 2 1 1 1 1 1 1 1 0 0 0 0 0 0 0 0 0 0 0 0 0 0 0 -0 -0 -0 -0 -0 -0 -0 -0 -0 -0 -0 -1 -1 -1 -1 -1 -1 -1 -1 -1 -1 -0 -0 -0
Height
841 841 841 841 841 841 841 840 840 840 839 839 838 838 838 837 837 836 836 836 835 834 834 833 832 832 831 831 830 829 829 828 827 827 826 826 825 825 824 823 823 822 821 821 820 820 819 819 818 817 816 816 815 814 813 813 812 812 811 811 810 809 809 808 807 806 806 805 804
841 841 841 841 841 840 840 840 839 839 839 838 838 837 837 836 836 836 835 835 834 833 833 832 831 831 830 829 829 828 827 827 826 826 825 824 824 823 822 822 821 821 820 819 819 818 818 817 816 816 815 814 813 812 811 811 811 810 809 809 808 808 807 806 805 804 804 803 802
840 840 840 840 840 840 839 839 839 838 838 838 837 837 836 836 835 835 834 833 833 832 832 831 830 830 829 828 827 827 826 826 825 824 823 823 822 822 821 820 820 819 819 818 817 816 816 815 815 814 813 812 811 810 810 809 809 808 807 807 806 806 805 804 803 803 802 801 801
840 840 840 840 839 839 839 838 838 837 837 837 836 836 835 835 834 834 833 832 832 831 831 830 829 828 827 827 826 825 825 824 824 823 822 821 821 820 820 819 818 817 817 816 816 815 814 814 813 812 811 810 810 809 808 807 807 806 806 805 805 804 803 802 802 801 801 800 799
839 839 839 839 839 838 838 837 837 836 836 836 835 835 834 834 833 833 832 831 831 830 829 829 828 827 826 826 825 824 823 823 822 821 821 820 819 819 818 817 817 816 816 815 814 813 813 812 811 810 810 809 808 807 806 806 805 805 804 803 803 802 802 801 800 800 799 798 798
838 838 838 838 838 837 837 837 836 836 835 835 834 834 833 833 832 831 831 830 829 828 828 827 826 826 825 824 823 823 822 821 821 820 819 818 818 817 816 816 815 815 814 813 813 812 811 811 809 808 808 807 806 805 805 804 804 803 802 801 801 801 800 799 799 798 797 796 796
838 837 837 837 837 836 836 836 835 835 834 834 833 832 832 831 831 830 829 829 828 827 826 826 825 824 823 823 822 821 821 820 819 819 818 817 816 816 815 814 814 813 812 812 811 810 810 809 808 807 806 805 804 804 803 803 802 801 800 799 799 799 798 797 797 796 796 795 794
837 836 836 836 836 836 835 835 834 834 833 832 832 831 831 830 829 829 828 827 826 826 825 824 824 823 822 821 821 820 819 818 818 817 816 816 815 814 814 813 812 811 811 810 810 809 808 807 806 805 804 804 803 802 801 801 801 800 799 798 797 797 796 796 795 795 794 793 792
836 836 836 835 835 835 834 834 833 833 832 831 831 830 830 829 828 827 826 826 825 824 824 823 822 821 821 820 819 819 818 817 816 816 815 814 814 813 812 811 811 810 809 809 808 807 806 806 805 804 803 802 801 800 800 800 799 798 797 796 795 795 794 794 794 793 792 791 791
835 835 834 834 834 833 833 832 832 831 831 830 829 829 828 828 827 826 825 825 824 823 822 822 821 820 819 819 818 817 816 816 815 814 813 813 812 811 811 810 809 808 808 807 806 806 805 804 803 802 801 801 800 799 798 798 797 796 795 795 794 793 792 792 792 791 791 790 789
834 834 833 833 833 832 832 831 831 830 830 829 828 827 827 826 826 825 824 823 822 821 821 820 820 819 818 817 816 816 815 814 814 813 812 811 811 810 810 809 808 807 806 806 805 804 803 802 801 800 799 799 798 797 797 796 796 795 793 792 792 791 790 790 790 789 789 788 787
833 832 832 832 831 831 831 830 829 829 828 827 827 826 826 825 824 823 823 822 821 820 819 819 818 817 816 816 815 814 814 813 812 811 811 810 809 809 808 807 806 806 805 804 803 803 801 801 800 798 797 797 796 796 795 794 794 793 791 791 790 789 788 787 787 787 786 786 785
832 831 831 831 831 830 829 829 828 827 827 826 826 825 824 823 823 822 821 820 819 818 818 817 817 816 815 814 814 813 812 812 811 810 809 809 808 807 806 806 805 804 803 802 801 801 800 799 798 797 796 795 794 794 793 793 792 791 790 789 788 787 786 786 785 785 784 784 783
831 831 830 830 829 829 828 827 827 826 826 825 824 823 822 822 821 821 820 819 818 817 816 816 815 814 814 813 812 811 811 810 810 809 808 807 806 806 805 804 803 802 801 801 800 799 798 797 796 795 794 793 792 792 791 791 790 789 788 787 786 785 784 784 783 783 782 782 781
830 829 829 829 828 827 827 826 826 825 824 823 822 822 821 820 819 819 818 817 816 815 815 814 813 813 812 812 811 810 810 809 808 807 806 806 805 804 803 802 801 800 800 799 798 797 796 795 794 793 792 791 791 790 789 789 788 787 786 785 784 783 782 782 781 781 780 780 779
829 828 828 827 827 826 826 825 824 823 823 822 821 820 819 818 818 817 816 815 814 814 813 812 811 811 811 810 810 809 808 807 806 806 805 804 803 802 801 800 799 798 797 796 796 795 794 793 793 792 791 790 789 788 787 786 786 785 784 783 782 781 781 780 779 779 778 778 777
827 827 827 826 826 825 824 823 823 822 821 820 819 819 818 817 816 815 815 814 813 812 811 811 810 810 809 808 808 807 806 806 805 804 803 802 801 800 799 798 797 797 796 795 794 792 791 791 791 790 789 788 787 786 785 784 783 782 782 781 780 779 779 778 777 777 776 776 775
826 826 826 825 824 823 823 822 821 821 820 819 818 817 816 815 814 814 813 812 811 811 810 809 808 808 807 807 806 806 805 804 803 802 801 801 800 799 798 796 796 795 794 793 792 791 790 789 788 787 787 786 785 784 783 782 781 780 779 779 778 777 776 776 775 775 774 773 772
825 825 824 824 823 822 821 821 820 819 818 817 816 816 815 814 813 812 811 811 810 809 808 807 807 806 806 806 805 804 804 803 802 801 800 799 798 797 796 795 794 793 792 791 790 789 788 787 786 785 785 784 782 781 781 780 779 778 777 776 776 775 774 773 773 772 771 771 770
824 823 823 822 821 821 820 820 819 818 817 816 815 814 813 812 811 811 810 809 808 808 807 806 806 805 804 804 803 802 802 801 800 799 798 797 796 795 794 793 792 791 790 789 788 787 786 785 784 783 782 781 781 779 779 778 777 776 775 774 773 772 772 771 770 770 769 768 768
823 822 821 821 820 820 819 818 817 816 816 815 814 813 812 811 810 809 808 808 807 806 806 805 804 804 803 802 801 801 800 800 799 798 796 796 795 793 792 791 790 789 788 787 786 785 784 783 782 781 781 779 778 777 776 776 774 773 772 772 771 770 770 769 768 767 767 766 766
821 821 820 820 819 818 818 817 816 815 814 813 812 811 811 810 809 808 807 806 806 805 805 804 803 802 802 801 800 799 798 797 797 796 795 794 793 792 791 790 789 787 786 786 785 783 782 781 781 780 778 777 776 775 774 773 772 771 770 769 769 768 767 767 766 766 765 764 764
820 819 819 818 818 817 816 816 815 814 813 812 811 810 809 808 807 806 806 805 805 804 803 802 802 801 801 800 799 798 797 796 795 794 793 792 791 790 789 788 787 786 785 784 783 782 781 780 778 777 776 776 774 773 772 771 770 769 768 766 766 765 765 764 764 763 763 762 761
819 818 818 817 816 816 815 814 813 812 811 810 809 808 807 807 806 805 804 804 803 802 802 801 801 800 799 798 797 796 795 794 793 792 791 790 789 788 787 786 786 784 783 782 781 781 780 778 777 776 775 774 772 771 770 769 768 767 766 765 764 763 763 762 762 761 761 760 759
817 817 816 816 815 814 813 812 811 811 810 809 808 807 806 805 805 804 803 802 802 801 801 800 799 798 797 796 796 795 794 793 791 790 789 788 787 786 786 785 784 783 782 781 780 779 779 778 776 775 774 772 771 770 769 768 767 766 765 763 762 761 761 760 760 759 759 758 757
816 815 815 814 813 812 811 811 810 809 808 807 806 806 805 804 803 803 802 801 800 800 799 798 797 796 796 795 794 793 792 791 790 789 788 786 786 785 784 783 782 781 780 779 778 778 777 776 775 774 772 771 770 768 767 766 765 764 763 762 761 760 759 758 757 756 756 756 755
814 814 813 812 811 811 810 809 808 807 806 806 805 804 803 803 802 801 801 800 799 798 798 797 796 795 794 793 792 791 790 789 788 787 786 785 784 783 782 781 780 779 778 778 777 776 776 774 773 772 771 770 768 766 765 764 763 762 761 760 759 758 757 756 755 754 754 753 753
813 812 811 811 810 809 808 808 807 806 805 804 804 803 802 801 801 800 799 798 798 797 796 795 795 794 793 791 791 790 788 787 786 786 785 784 783 782 781 780 779 778 777 776 776 775 774 772 771 770 769 768 766 765 763 762 761 760 759 758 757 756 756 755 754 753 752 751 750
811 810 810 809 808 807 807 806 805 805 804 803 802 802 801 800 800 799 798 797 796 796 795 794 793 792 791 790 789 788 787 786 785 784 783 782 781 780 779 778 777 776 775 775 774 773 772 771 770 768 767 766 765 763 761 760 759 758 757 756 755 755 754 753 752 751 750 748 746
809 809 808 807 806 806 805 805 804 803 802 802 801 801 800 799 798 797 796 796 795 794 793 792 791 790 789 788 787 786 785 784 783 782 781 781 779 778 777 776 776 774 774 773 772 771 770 769 768 766 765 764 763 761 760 759 757 756 755 754 753 753 752 751 750 749 747 745 743
808 807 806 806 805 804 804 803 802 802 801 801 800 799 798 797 797 796 795 794 793 792 791 791 790 789 787 786 786 785 783 782 781 781 780 779 778 777 776 775 774 773 772 771 771 769 768 767 766 764 763 762 761 760 758 757 756 755 753 752 751 751 750 749 748 746 744 742 741
806 806 805 804 803 803 802 802 801 801 800 799 799 798 797 796 795 795 794 793 792 791 790 789 788 787 786 785 784 783 782 781 780 779 778 777 776 775 774 773 772 771 770 770 769 767 766 765 764 762 761 760 759 757 756 755 754 753 751 751 750 749 748 747 745 743 741 740 739
804 804 803 802 802 801 801 800 800 799 799 798 797 796 796 795 794 793 792 791 791 790 788 787 786 785 784 783 782 781 780 779 778 777 777 776 775 774 772 771 770 769 769 768 767 766 764 763 762 761 759 758 757 756 754 753 752 751 750 749 748 747 746 744 742 741 739 738 737
803 802 801 801 801 800 799 799 798 798 797 796 796 795 794 793 792 791 791 790 789 788 787 786 785 784 783 781 781 779 778 777 776 776 775 774 773 772 771 769 768 767 767 766 765 764 762 761 760 759 757 756 755 753 752 751 750 749 748 746 746 745 743 741 740 738 737 736 736
801 801 800 800 799 798 798 797 797 796 796 795 794 794 793 792 791 790 789 788 787 786 785 784 783 782 781 780 779 778 777 776 775 774 773 772 771 770 769 767 766 766 765 764 763 762 761 759 758 757 756 754 753 751 750 749 748 746 746 744 743 742 740 739 737 736 735 734 733
800 799 799 798 797 797 797 796 796 795 795 794 793 792 791 790 789 788 787 786 786 784 783 782 781 780 779 778 777 776 776 774 773 772 771 771 769 768 766 765 764 763 763 762 761 760 759 757 756 755 754 752 751 750 748 747 746 744 743 742 741 740 738 736 735 734 733 732 731
799 798 797 797 796 796 795 795 794 794 793 792 791 790 789 788 787 786 786 785 784 782 781 781 780 778 777 776 775 774 774 773 771 770 769 769 768 766 765 763 762 761 760 760 759 758 757 756 755 753 752 751 749 748 746 745 744 742 741 740 739 737 736 734 733 731 731 730 730
797 797 796 796 795 795 794 794 793 792 791 791 790 789 788 787 786 785 784 783 782 781 780 779 778 777 776 775 774 772 771 771 770 769 768 766 766 765 763 761 760 759 758 758 757 756 755 754 753 752 751 749 747 746 745 743 742 741 739 738 736 735 734 732 731 730 729 729 728
796 795 795 794 794 793 793 792 791 791 790 789 788 787 786 785 784 783 783 782 781 780 778 777 776 775 774 773 772 771 770 769 768 767 766 765 764 763 761 760 758 757 756 756 755 754 753 752 751 750 749 748 746 744 743 741 740 738 737 736 734 733 731 731 730 729 728 727 726
795 794 794 793 792 792 791 791 790 789 788 787 786 785 785 784 783 782 781 780 779 778 777 776 774 773 772 771 770 769 767 766 766 765 764 763 762 761 760 758 756 755 754 754 753 752 751 751 750 748 747 746 745 743 741 740 738 737 736 734 733 731 730 729 729 728 726 725 723
793 793 792 792 791 791 790 789 788 787 786 786 785 784 783 782 781 780 779 778 777 776 775 774 773 771 771 770 768 767 766 764 763 762 762 761 760 759 758 756 755 753 752 752 751 751 750 749 748 747 746 744 743 741 740 738 736 735 734 733 732 731 729 728 727 726 724 722 721
Wind_Speed
3 3 3 4 6 7 8 9 9 10 11 11 12 13 13 14 15 16 16 17 18 19 20 21 21 22 22 22 22 22 22 22 22 22 22 22 22 22 23 23 24 25 25 26 26 26 26 27 27 27 28 28 28 28 28 28 28 27 27 27 26 26 26 27 27 28 28 29 30
3 4 4 5 6 7 8 9 10 10 11 11 12 13 14 15 15 16 17 18 19 20 20 21 21 22 22 22 22 22 22 23 22 22 22 22 23 23 24 24 25 25 26 26 26 27 27 27 27 28 28 28 28 28 28 28 27 27 27 28 28 28 27 27 27 27 27 27 28
3 4 5 6 7 8 9 10 10 11 11 12 13 14 14 15 16 17 18 19 20 20 21 21 22 22 22 23 23 23 23 23 23 23 23 23 24 24 24 25 25 26 26 27 27 27 28 28 28 28 28 28 28 28 28 28 27 27 27 28 28 28 28 27 28 27 27 26 26
4 5 6 7 8 9 10 10 11 12 12 13 14 15 16 17 18 19 19 20 21 21 21 22 22 23 23 23 23 23 23 23 23 23 24 24 24 25 25 25 26 27 27 28 28 28 29 29 29 28 28 28 28 28 28 28 28 27 27 27 27 27 27 27 27 27 26 25 25
4 5 7 8 9 10 10 11 11 12 13 14 15 16 17 18 19 20 20 21 21 22 22 22 22 23 23 23 23 23 23 23 23 23 24 25 25 25 26 26 27 27 28 29 29 29 29 29 29 29 29 28 28 28 28 28 28 28 28 28 27 27 26 27 27 26 26 25 25
5 6 8 8 9 10 10 11 12 13 14 15 16 18 18 19 20 20 21 22 22 22 22 22 23 23 23 23 23 23 23 23 23 24 24 25 25 26 26 27 28 28 29 29 30 30 30 30 29 29 29 29 29 28 28 28 28 28 28 28 27 27 27 26 26 26 26 26 26
6 7 8 8 9 10 11 12 13 14 15 16 17 18 19 20 20 21 21 22 22 22 23 23 23 23 23 23 23 23 23 24 24 24 25 25 26 27 27 28 29 29 30 30 30 30 30 30 30 30 29 29 29 29 28 28 28 28 28 28 28 27 27 26 26 26 26 26 27
7 7 8 9 9 11 12 13 14 15 16 17 18 19 20 20 21 21 22 22 22 22 23 23 23 23 23 23 24 24 24 25 25 25 26 26 27 27 28 29 29 30 30 30 30 30 30 30 30 30 30 29 29 29 29 28 28 28 28 28 28 27 27 26 26 26 26 27 28
7 7 8 9 10 11 12 14 15 16 17 17 18 19 19 20 21 21 22 22 22 22 23 23 23 23 24 24 24 25 25 25 26 26 26 27 27 28 29 29 29 30 30 30 30 30 30 30 30 30 30 29 29 29 29 29 28 28 28 28 28 28 28 28 28 28 28 28 29
7 8 9 10 11 12 13 14 15 16 17 18 18 19 19 20 20 21 21 22 22 23 23 23 24 24 25 25 25 25 25 26 26 26 27 27 28 28 28 29 29 30 30 30 30 30 31 31 31 30 30 30 30 30 29 29 28 28 28 29 29 29 30 30 30 30 30 30 30
7 8 9 11 12 13 13 14 15 16 17 18 18 19 19 20 20 21 22 22 23 23 24 24 25 25 25 26 25 25 25 26 26 26 27 27 27 28 28 29 29 30 30 31 31 31 31 31 30 31 31 31 30 30 30 29 29 29 30 30 30 31 31 32 32 31 31 31 31
8 9 10 11 12 13 14 15 15 16 17 18 18 19 19 20 21 21 22 23 24 24 24 25 25 25 25 25 25 25 25 25 26 26 27 27 28 28 29 29 30 30 31 31 31 31 31 30 31 31 31 32 31 31 30 30 30 30 31 31 32 32 32 32 32 32 31 31 31
9 10 10 11 12 13 14 15 15 16 17 18 18 19 20 20 21 22 22 23 24 24 24 24 24 24 25 25 25 25 25 25 26 26 27 27 28 29 29 30 30 31 31 31 31 31 31 31 31 32 32 32 32 31 31 31 31 31 32 32 32 32 32 33 33 32 32 31 30
9 10 10 11 12 13 14 15 16 16 17 18 19 20 20 21 21 22 22 23 24 24 24 24 24 24 24 24 24 25 25 26 26 27 27 28 28 29 30 30 31 31 31 31 31 31 31 31 32 32 33 33 33 33 32 32 31 31 32 32 32 32 33 33 33 32 32 31 30
9 10 10 11 12 13 14 15 16 17 18 19 20 20 21 21 22 22 23 23 23 24 24 24 24 24 24 24 24 25 25 26 26 27 28 28 29 29 30 30 31 31 31 31 32 32 32 32 33 33 33 33 33 33 33 32 32 32 32 32 32 32 32 33 32 32 31 31 30
9 10 11 12 13 14 15 16 17 18 19 20 20 21 21 22 22 22 22 23 23 23 23 24 24 24 24 24 24 25 26 26 27 27 28 28 29 29 30 30 31 31 32 32 33 33 33 33 33 33 33 33 33 33 33 33 32 32 32 32 32 32 32 32 32 31 31 31 30
9 10 11 12 13 14 16 17 18 18 19 20 21 21 21 22 22 22 22 22 22 23 23 23 23 23 24 24 24 25 26 26 27 27 28 28 29 30 30 31 31 32 32 33 33 34 34 34 34 33 33 33 33 33 33 33 32 32 32 32 31 31 32 31 31 31 31 31 30
9 10 12 13 14 15 16 17 18 19 20 20 21 21 21 21 21 21 21 21 21 22 22 23 23 23 24 25 25 25 26 26 27 27 28 29 29 30 31 31 32 32 32 33 33 34 34 34 34 33 33 33 33 33 32 32 32 32 31 31 31 32 32 31 31 31 31 30 30
10 11 12 13 14 16 17 17 18 19 20 20 20 20 20 20 20 20 20 20 20 20 21 22 23 23 24 25 25 26 26 26 27 28 28 29 30 30 31 32 32 32 32 33 33 33 33 33 33 33 33 33 33 32 32 32 32 32 32 32 32 32 32 31 31 31 30 30 29
10 11 13 14 15 16 17 17 18 19 19 20 20 20 20 19 19 19 20 20 20 20 21 22 23 24 25 25 26 26 26 27 27 28 29 30 30 31 31 32 32 32 32 32 32 33 33 33 33 33 33 33 32 32 32 32 32 32 32 32 31 31 31 31 30 30 29 28 28
11 12 13 14 15 16 17 18 18 19 20 20 20 20 20 20 20 20 20 20 20 21 22 23 24 25 25 26 26 27 27 28 28 29 29 30 30 30 31 31 31 32 32 32 32 32 32 33 33 33 32 32 32 32 32 32 32 32 31 31 30 30 29 29 28 28 27 26 26
11 12 13 14 15 16 17 18 19 19 20 20 21 21 21 20 20 20 20 21 21 22 23 24 24 25 26 26 27 27 28 28 29 29 29 30 30 30 30 31 31 31 32 32 32 32 33 33 33 32 32 31 31 31 31 31 31 31 30 30 30 29 28 27 27 26 25 25 25
11 12 13 14 15 16 17 18 19 20 21 21 22 22 22 21 21 21 21 21 22 22 23 24 25 25 26 27 27 28 28 29 29 30 30 30 30 30 31 31 31 31 32 32 32 32 32 32 31 31 30 30 30 30 30 30 29 29 29 29 29 28 27 26 25 25 25 25 25
11 12 13 14 15 17 18 19 20 21 22 22 23 23 22 22 22 22 22 22 22 23 24 24 25 26 26 27 27 28 28 29 29 30 30 30 30 31 31 31 31 31 31 31 32 31 30 29 29 29 29 29 29 29 28 28 28 28 28 28 28 27 26 26 25 25 25 25 25
10 12 13 14 16 18 19 20 22 22 23 23 23 23 23 23 23 23 23 23 24 24 24 25 26 26 27 27 27 28 28 29 29 30 30 31 31 31 31 31 30 30 31 31 31 30 28 27 27 28 29 29 28 28 27 28 28 28 28 28 27 27 26 26 25 25 25 25 25
10 12 13 15 17 19 20 21 22 23 24 24 24 24 24 24 23 24 24 24 25 25 25 26 26 27 27 27 28 28 28 29 29 30 30 31 31 31 31 30 30 30 31 31 30 29 27 27 27 28 28 29 28 29 29 30 30 29 29 28 27 26 25 25 25 25 25 24 24
10 12 14 16 18 19 21 22 23 24 24 25 24 24 24 24 24 24 25 25 26 26 26 26 27 27 27 27 28 28 29 29 30 30 30 30 30 31 31 30 30 30 31 30 29 28 27 28 28 28 28 28 29 30 30 30 30 29 28 26 25 24 24 24 24 25 25 25 25
11 12 14 17 19 20 22 23 24 24 25 25 24 24 24 24 24 24 25 26 26 27 27 27 27 27 27 28 28 29 29 30 30 30 30 30 30 30 30 30 30 30 30 29 28 27 28 28 28 28 28 28 28 29 29 29 28 27 26 25 24 24 23 23 24 25 26 28 29
11 13 15 17 19 21 22 23 24 24 25 25 25 24 24 24 25 25 25 26 27 27 27 28 28 28 28 28 29 29 30 30 30 30 30 29 29 29 30 30 30 30 30 29 28 28 28 28 28 28 28 28 28 28 28 28 27 26 25 24 23 23 24 24 25 26 28 30 31
12 14 16 18 20 21 23 23 24 24 25 25 25 25 25 25 25 25 26 26 27 27 28 28 28 28 28 29 29 29 29 30 30 29 29 29 29 29 29 29 29 30 30 29 28 28 28 28 28 28 28 28 28 28 28 28 27 26 25 24 23 24 25 26 27 29 30 32 33
12 14 16 19 20 22 23 24 24 24 25 25 25 25 25 25 25 26 26 27 27 28 28 28 28 28 29 29 29 29 29 30 29 29 29 28 28 29 29 29 30 30 30 29 28 28 28 28 29 29 29 28 28 28 28 27 26 26 25 24 25 25 26 27 29 31 32 33 34
13 15 17 19 21 22 23 24 24 24 25 25 25 25 25 25 26 26 27 28 28 28 28 28 28 28 29 29 29 29 29 29 29 29 28 28 28 29 29 30 30 30 29 28 28 28 28 29 29 29 29 28 28 27 28 27 27 26 25 25 26 27 28 29 30 32 33 34 33
14 16 17 19 21 22 23 24 24 24 25 25 25 25 25 26 27 27 28 28 28 28 27 27 28 28 28 29 29 29 29 29 29 28 28 28 28 29 29 30 30 29 29 28 28 28 29 29 29 29 28 28 28 27 28 27 27 26 26 26 27 28 29 31 33 34 34 34 33
15 16 18 20 21 23 23 24 24 24 24 24 25 25 26 26 27 28 28 28 27 27 27 27 27 27 28 28 28 28 29 29 28 28 28 29 29 29 29 30 30 30 29 28 28 28 29 29 28 28 28 28 28 27 27 27 26 26 26 26 27 29 30 32 33 34 34 33 32
16 17 19 21 22 23 23 24 24 24 24 25 25 26 26 27 27 28 28 28 27 27 27 27 27 27 28 28 28 28 28 29 29 29 29 29 29 29 29 30 31 31 30 29 28 28 28 28 28 28 28 28 27 27 27 27 26 26 26 27 28 29 31 32 33 33 33 32 31
17 18 20 21 22 23 23 23 24 24 24 25 26 26 27 27 27 27 27 27 27 27 27 27 27 27 28 28 28 28 28 28 29 29 29 29 29 29 30 31 31 31 30 29 28 27 27 27 27 27 27 27 27 27 26 26 26 26 26 27 28 29 31 32 33 32 31 29 28
18 19 20 21 22 22 23 23 24 24 25 26 26 26 27 27 27 27 27 26 26 26 26 27 27 27 28 28 28 29 29 29 29 29 29 29 29 29 30 31 31 31 30 29 27 26 26 26 26 27 27 27 27 27 26 26 25 26 26 27 28 29 30 31 30 29 27 24 23
18 19 20 21 22 22 23 23 24 25 25 26 26 26 26 27 27 27 26 25 25 25 26 27 27 28 28 29 29 29 29 29 29 29 29 29 29 30 30 31 31 31 30 29 27 25 25 25 25 26 26 27 27 27 26 26 25 26 26 27 27 28 29 28 26 24 22 21 22
19 19 20 21 22 23 23 24 24 25 25 26 26 26 26 26 26 26 25 25 25 25 26 27 27 28 29 29 29 29 30 30 29 29 29 29 30 29 29 29 30 30 30 29 26 25 24 24 25 26 26 27 27 26 26 25 25 25 26 26 26 26 25 23 21 20 21 23 25
19 20 20 21 22 23 24 24 25 25 25 25 26 26 26 26 26 26 25 25 25 25 26 27 28 29 29 29 29 29 30 30 30 30 30 30 30 29 29 29 29 30 29 28 26 24 23 24 25 26 26 26 26 26 25 24 25 25 25 24 24 23 22 21 22 23 25 27 29
19 20 21 22 23 24 24 25 25 25 25 25 25 25 26 25 25 25 25 26 26 26 27 27 28 29 29 29 29 29 30 31 31 31 30 30 29 29 28 29 29 29 28 27 25 23 23 24 25 26 26 26 26 26 25 24 24 24 24 24 23 23 23 25 26 27 28 29 31
Wind_Direction
243 256 273 286 295 301 305 307 308 307 307 307 307 307 307 306 306 306 306 305 305 305 305 306 307 308 308 309 309 309 308 307 307 305 303 302 300 298 297 296 295 295 296 296 296 296 296 296 296 296 296 296 296 295 295 294 295 295 295 294 294 294 293 292 290 288 285 283 280
238 251 264 276 286 294 299 301 301 301 301 301 302 302 302 302 302 303 303 303 304 304 305 306 306 306 307 307 307 307 307 306 306 305 303 301 300 299 298 297 297 297 297 297 298 298 298 298 298 298 298 297 297 296 295 294 294 294 294 293 293 293 293 292 291 291 290 288 286
245 258 269 281 289 295 298 300 300 300 299 299 299 299 299 299 300 301 302 303 304 305 305 305 306 306 306 305 305 305 305 305 305 304 303 301 300 299 298 298 298 298 298 298 298 299 299 300 300 300 299 299 298 297 296 295 295 295 294 293 293 293 292 292 291 292 292 291 290
251 266 278 288 295 299 301 302 302 301 301 301 300 300 300 301 301 302 303 304 305 306 306 307 306 306 306 305 305 304 304 304 303 302 301 300 299 299 298 298 298 298 298 299 299 300 300 301 301 300 300 299 298 297 297 297 297 296 295 295 294 294 293 291 291 291 291 291 292
261 276 288 296 301 304 305 305 304 304 304 303 302 302 302 303 304 304 305 306 307 307 308 308 307 307 307 306 306 305 304 303 302 301 300 299 299 298 298 298 298 299 299 299 300 301 301 301 301 301 300 299 298 298 297 297 298 297 296 295 294 293 293 292 291 291 292 292 292
283 292 300 304 307 308 307 307 306 305 304 304 303 303 303 304 305 305 306 306 307 308 309 308 308 308 308 307 306 305 304 303 301 300 300 299 299 299 298 299 299 299 300 300 301 301 302 302 302 301 300 300 299 298 298 298 298 297 296 295 294 293 293 292 292 292 292 293 293
300 305 308 309 310 309 308 307 306 305 304 303 303 304 305 305 306 306 306 307 307 308 308 308 308 307 307 306 305 304 303 302 301 300 300 300 299 299 299 299 300 300 300 301 301 302 302 302 302 301 301 300 300 299 298 299 298 297 296 295 294 294 293 293 293 293 293 294 293
306 309 310 310 308 307 306 305 305 304 303 303 303 304 305 305 305 305 306 306 307 307 307 307 307 306 305 305 304 303 303 302 301 301 301 300 300 300 300 300 300 301 301 301 302 302 302 302 301 301 301 301 300 299 299 299 299 297 296 296 295 295 294 294 294 294 294 294 294
307 308 307 306 305 305 304 304 303 303 303 303 303 304 304 305 305 305 306 306 306 306 306 305 305 304 304 303 303 303 302 302 302 301 301 301 301 301 301 301 301 301 301 301 302 302 302 302 301 301 301 300 300 300 300 300 299 298 297 296 296 296 295 294 294 295 295 295 295
307 307 306 305 304 304 304 303 302 302 302 302 303 303 304 304 304 305 305 305 305 304 304 304 304 304 303 303 303 303 302 302 302 302 302 301 301 301 301 301 301 301 301 301 302 302 302 302 301 301 300 300 300 300 300 300 299 298 298 297 297 297 296 295 295 295 295 295 295
306 306 306 305 305 304 303 302 302 302 302 302 302 303 303 304 304 304 304 304 304 303 303 304 304 304 303 303 303 303 303 302 302 302 302 301 301 301 301 301 301 301 301 301 302 302 302 301 301 301 300 300 300 300 300 300 299 299 298 298 297 297 297 296 296 296 296 296 295
305 306 306 306 306 304 303 303 303 303 303 303 303 303 303 304 304 304 304 303 303 303 303 304 304 304 304 304 304 303 303 303 302 302 302 301 301 301 301 301 301 301 301 301 302 302 302 301 301 300 300 300 300 300 300 300 300 299 298 298 298 297 297 296 297 296 296 296 295
305 307 308 308 307 306 305 305 306 306 306 306 305 305 305 305 305 305 304 304 303 303 304 305 305 305 304 304 304 304 304 303 303 302 302 301 301 301 301 301 301 301 301 302 302 302 301 301 300 300 300 300 300 300 300 300 300 299 298 298 297 297 296 296 296 296 296 295 294
307 310 311 311 310 309 309 310 310 310 310 309 309 308 308 307 307 306 305 304 304 304 305 305 305 305 305 305 305 304 304 303 303 302 302 301 301 301 301 301 302 302 302 302 302 302 301 301 300 300 300 300 300 300 300 300 299 298 297 297 296 295 295 295 295 295 295 294 293
310 312 313 313 312 313 314 314 315 314 314 313 312 312 311 310 309 308 307 306 306 306 306 306 306 306 306 306 305 305 304 304 303 303 302 302 302 302 302 302 302 302 302 303 302 302 301 301 301 301 301 301 301 301 301 300 299 298 297 295 295 294 294 294 294 294 293 292 292
314 316 316 315 316 317 318 318 318 318 317 316 315 314 313 312 311 310 309 308 308 308 308 307 307 307 307 307 306 305 305 304 303 303 303 302 303 303 303 303 303 303 303 303 303 302 302 302 302 302 302 301 301 301 300 300 299 298 296 295 294 293 293 293 293 293 292 291 291
318 319 319 319 319 320 321 321 321 320 319 319 318 317 316 315 314 313 312 311 311 310 310 309 309 309 308 307 307 306 305 304 304 303 303 303 303 303 303 303 303 303 303 303 303 303 303 304 304 303 303 302 301 301 300 300 299 298 297 296 295 294 294 293 293 293 292 291 289
320 321 321 321 322 322 323 324 324 323 323 323 323 322 321 320 318 317 316 315 315 314 313 312 311 310 309 308 307 307 306 305 304 304 304 304 304 304 304 304 304 304 304 304 303 304 304 304 304 304 304 303 302 301 301 300 299 298 298 297 296 295 295 294 294 293 292 290 288
321 322 322 323 324 325 326 326 327 328 328 329 328 328 327 326 324 322 321 320 320 318 316 314 313 312 310 309 308 307 306 305 305 305 305 305 304 304 304 304 305 305 305 304 304 304 304 305 305 305 304 303 302 302 301 301 300 299 298 297 297 296 295 295 294 293 291 288 287
321 322 323 326 327 328 329 330 331 332 334 334 334 333 332 331 330 328 326 325 324 321 318 316 314 312 311 310 308 307 307 306 306 305 305 305 305 305 305 305 306 306 306 305 305 305 305 305 305 305 304 303 303 302 302 301 300 299 299 298 297 296 295 294 293 292 290 288 286
321 324 327 329 330 331 333 335 336 337 337 338 338 337 336 335 333 332 329 327 325 322 319 316 314 313 312 310 309 308 307 307 306 306 306 306 306 306 306 307 307 307 306 306 306 306 306 306 305 305 304 304 303 303 302 301 300 300 299 298 297 295 295 294 293 291 289 288 286
324 328 331 333 334 335 336 338 339 340 340 340 340 340 339 337 335 333 331 328 325 322 319 317 315 313 312 310 309 308 307 307 307 306 306 306 307 307 307 308 307 307 307 306 306 306 306 306 306 305 305 304 304 303 302 302 301 300 299 298 297 296 295 294 293 291 290 289 288
329 333 335 336 337 338 339 340 341 341 341 341 341 340 339 337 336 334 331 328 324 321 318 316 314 313 311 310 309 308 308 307 307 307 307 307 308 308 308 308 308 307 306 306 307 307 307 306 306 306 305 304 304 303 302 302 301 300 300 300 300 299 297 296 295 293 293 292 291
335 337 339 340 340 340 341 342 342 342 342 341 341 340 338 337 335 333 330 326 324 321 318 316 314 313 311 310 309 308 308 308 308 308 308 308 308 309 309 309 308 307 306 306 307 307 306 306 305 305 305 304 304 303 302 302 302 301 301 300 300 299 298 297 296 295 294 293 292
338 340 341 342 342 343 343 343 342 341 341 340 339 338 336 335 333 330 327 324 322 320 318 316 314 313 311 310 309 308 308 308 308 308 308 309 309 309 309 308 308 307 307 307 307 306 305 304 304 304 305 304 304 303 302 302 302 301 301 300 299 298 298 297 296 296 295 295 294
340 341 342 343 344 344 343 343 342 340 339 338 337 336 334 332 329 327 324 322 320 319 317 315 314 312 311 310 309 309 308 308 308 308 308 308 309 309 309 308 307 307 307 307 307 306 305 304 304 305 305 304 304 303 303 302 301 301 300 299 298 298 298 298 298 298 298 297 297
341 341 342 344 344 343 343 342 341 339 338 336 334 332 330 328 326 323 321 319 318 317 316 314 313 312 311 310 309 309 308 308 308 308 308 308 308 308 308 308 307 307 307 308 307 306 306 306 305 305 305 305 304 303 302 302 301 301 300 300 299 299 299 299 299 300 301 300 300
341 342 343 344 343 342 342 341 339 337 335 333 331 328 326 324 322 319 318 317 316 315 314 314 313 312 311 310 309 309 309 309 309 308 308 308 307 307 307 307 307 307 307 308 307 306 306 306 306 306 305 305 304 303 302 301 301 301 301 300 300 300 300 300 301 302 302 301 299
341 343 343 342 341 341 340 339 337 334 332 330 327 324 322 320 318 316 315 315 314 314 313 313 313 312 311 309 309 309 308 308 308 308 308 308 307 307 307 306 306 307 307 307 307 306 306 307 306 306 306 305 304 303 302 301 301 302 302 301 301 301 302 302 302 302 301 298 295
342 342 341 340 339 339 338 336 334 332 329 326 323 321 318 316 315 314 313 313 313 312 312 312 311 310 309 309 309 308 308 308 308 308 308 307 307 306 306 306 306 307 308 308 307 307 307 307 307 307 306 305 304 303 302 302 302 303 302 302 302 302 303 303 302 300 296 293 291
341 340 338 338 337 336 335 333 331 329 326 323 320 318 315 313 312 311 311 311 311 312 312 311 310 309 309 309 308 308 307 308 308 308 307 307 306 306 306 307 307 307 308 308 308 307 307 308 307 307 306 306 305 304 303 303 304 304 304 303 303 303 303 301 299 295 292 290 289
338 337 336 335 334 333 332 331 329 326 324 321 318 315 312 311 310 310 310 311 311 311 311 311 310 309 309 308 308 307 307 307 307 307 307 306 306 306 306 307 307 307 308 308 308 308 308 308 308 307 307 306 305 305 305 305 305 305 304 303 302 302 301 298 294 291 289 289 289
335 334 333 332 330 329 329 327 325 323 321 318 315 312 311 309 309 310 310 311 311 311 310 309 309 308 307 307 307 306 306 306 306 306 307 306 306 306 306 306 306 307 308 308 308 308 308 308 308 307 307 307 306 306 306 306 306 305 304 302 301 299 297 294 292 290 289 289 289
332 331 330 328 327 326 325 324 322 320 318 315 312 311 310 309 309 310 310 311 311 310 309 308 307 307 306 306 305 305 306 306 306 306 307 307 307 307 306 306 306 307 307 307 308 308 308 308 308 308 308 308 308 308 307 307 306 304 302 300 298 296 294 293 291 290 290 289 288
329 327 326 324 323 322 321 320 318 317 315 312 311 310 310 310 309 310 310 311 310 309 308 307 307 306 306 306 306 306 306 306 306 307 307 308 307 307 306 305 306 307 307 307 307 308 308 308 308 309 309 309 309 309 308 307 305 302 300 298 296 294 293 292 291 290 289 289 288
326 324 322 320 318 317 316 315 315 314 312 311 311 311 310 310 310 310 311 311 310 308 307 307 307 306 306 306 306 306 306 306 306 307 307 307 307 306 306 305 306 307 308 308 307 308 308 308 309 309 310 310 310 309 308 306 303 301 299 297 295 294 293 292 291 290 289 288 288
323 321 318 315 313 312 311 312 312 311 311 311 311 311 311 311 311 311 311 310 309 307 307 307 306 306 306 306 306 306 306 306 306 307 307 307 306 306 305 305 306 307 308 308 307 308 308 309 309 310 311 311 311 309 307 305 302 300 298 297 295 294 293 292 290 289 290 291 293
319 316 312 309 308 307 308 309 310 310 310 311 311 311 311 311 310 310 310 310 308 307 306 306 306 306 306 306 306 306 306 306 306 306 306 306 306 305 305 305 305 306 307 308 308 308 308 309 310 311 312 312 310 308 306 303 301 299 298 297 295 294 293 291 291 293 296 299 299
313 310 306 304 304 305 306 308 309 310 310 311 311 311 311 311 310 310 309 309 307 306 305 305 305 305 306 306 306 306 306 306 305 305 305 305 305 305 305 304 304 305 307 308 308 308 309 310 311 312 312 311 309 307 304 301 299 298 297 297 296 295 295 295 298 302 303 302 300
309 305 302 301 302 304 305 307 308 309 310 310 311 311 311 310 309 309 308 308 307 306 305 305 305 305 306 306 306 305 305 305 305 305 305 305 305 305 304 304 304 305 307 308 309 309 310 311 311 312 312 310 308 305 302 300 299 299 298 299 299 300 301 304 306 306 304 302 300
304 301 300 300 302 303 305 306 308 309 310 310 310 310 310 309 308 308 308 307 307 306 306 305 305 305 305 305 305 304 304 304 305 305 305 305 305 305 305 304 305 306 308 309 310 310 310 311 311 311 311 309 307 304 302 301 300 299 300 301 302 303 304 306 306 304 302 300 299